[[{"header":{"parameterUnit":"m.s-1","parameterCategory":1,"la1":30.2991,"la2":30.254,"lo1":-89.0895,"lo2":-89.0444,"dy":0.0017,"dx":0.0017,"nx":28,"ny":28,"refTime":"2024-05-22T03:00:00:Z","depth":0,"parameterNumber":2,"parameterNumberName":"U-component_of_WINDS"},"data":[0,0,0,0,0,0,0,0,0,0,0,0,0,0,0,0,0,0,0,0,0,0,0,0,0,0,0,0,0,0,0,0,0,0,0,0,0,0,0,0,0,0,0,0,0,0,0,0,0,0,0,0,0,0,0,0,0,0,-2.3996,-2.3996,0,-2.401,-2.401,-2.401,-2.3975,-2.3974,-2.3973,-2.3971,-2.3985,-2.3986,-2.3988,0,0,0,0,0,0,0,0,0,0,0,0,0,-2.394,-2.3941,-2.3996,-2.3996,-2.3996,-2.401,-2.401,-2.401,-2.3975,-2.3974,-2.3972,-2.3971,-2.3985,-2.3986,-2.3988,0,0,0,0,0,0,0,0,0,0,0,0,0,-2.396,-2.3942,-2.3996,-2.3981,-2.3979,-2.401,-2.401,-2.401,-2.3975,-2.3974,-2.3972,-2.397,-2.3984,-2.3986,-2.3988,-2.4034,0,0,-2.3994,-2.3995,0,0,0,0,0,0,0,0,-2.3959,-2.3962,-2.3983,-2.3982,-2.398,-2.3989,-2.3995,-2.4018,-2.3976,-2.3977,-2.3971,-2.397,-2.3988,-2.3989,-2.3995,-2.4035,-2.4035,-2.3995,-2.3996,-2.3997,-2.3997,0,0,0,0,0,0,0,-2.3958,-2.3961,-2.4001,-2.3983,-2.3982,-2.3973,-2.3974,-2.3999,-2.3991,-2.3977,-2.3974,-2.3976,-2.3987,-2.3994,-2.3995,-2.4035,-2.3995,-2.3996,-2.3998,-2.3998,-2.4113,-2.4115,0,0,0,0,0,0,-2.3958,-2.396,-2.4001,-2.4002,-2.3965,-2.3975,-2.3976,-2.3988,-2.3991,-2.399,-2.3978,-2.3974,-2.3991,-2.3993,-2.3996,-2.405,-2.3997,-2.3999,-2.4,-2.4111,-2.4114,-2.4116,0,0,0,0,0,0,-2.3957,-2.3962,-2.4,-2.398,-2.3985,-2.3978,-2.3991,-2.3989,-2.3996,-2.3992,-2.399,-2.3986,-2.399,-2.3993,-2.4025,-2.405,-2.4,-2.4002,-2.4109,-2.4112,-2.4115,-2.4158,0,0,0,0,0,0,-2.3956,-2.3962,-2.3979,-2.3981,-2.3986,-2.4029,-2.3993,-2.399,-2.3999,-2.3995,-2.3999,-2.3998,-2.3989,-2.4022,-2.4027,-2.4052,-2.4003,-2.4107,-2.411,-2.4114,-2.4154,-2.4161,-2.4168,0,0,0,0,0,-2.3954,-2.3991,-2.398,-2.3985,-2.4007,-2.4031,-2.4033,-2.4022,-2.4002,-2.4019,-2.4016,-2.3998,-2.4046,-2.4025,-2.4031,-2.4056,-2.4105,-2.411,-2.4113,-2.4151,-2.416,-2.4168,0,0,0,0,0,0,-2.3991,-2.3991,-2.3979,-2.4018,-2.4025,-2.4025,-2.4046,-2.4032,-2.4044,-2.404,-2.4025,-2.4026,-2.4061,-2.4062,-2.4039,-2.4101,-2.4072,-2.4078,-2.4099,-2.4108,-2.4115,-2.4113,-2.4005,0,0,0,0,0,-2.4004,-2.4024,-2.4022,-2.4056,-2.406,-2.4053,-2.4062,-2.4053,-2.4059,-2.4062,-2.4062,-2.4069,-2.4086,-2.4097,-2.4112,-2.4154,-2.4155,-2.4175,-2.4182,-2.4187,-2.4192,-2.4214,-2.4223,-2.4129,-2.4129,-2.4129,0,0,-2.4031,-2.4033,-2.4046,-2.4064,-2.4068,-2.4088,-2.4055,-2.4078,-2.4093,-2.4065,-2.4095,-2.4096,-2.4103,-2.414,-2.4157,-2.4142,-2.4218,-2.4193,-2.4197,-2.4199,-2.422,-2.4229,-2.4236,-2.4132,-2.4131,-2.4131,0,0,-2.409,-2.4093,-2.4122,-2.4127,-2.4134,-2.4129,-2.4136,-2.4139,-2.4138,-2.4168,-2.4148,-2.4166,-2.4195,-2.4201,-2.4207,-2.427,-2.4253,-2.4275,-2.4311,-2.4333,-2.4341,-2.4347,-2.4369,-2.4377,-2.428,-2.428,-2.428,0,-2.4122,-2.4151,-2.4139,-2.4163,-2.4171,-2.4148,-2.4177,-2.4183,-2.4195,-2.4201,-2.4185,-2.4221,-2.4224,-2.4263,-2.4278,-2.4284,-2.4292,-2.4274,-2.4341,-2.4347,-2.4353,-2.4374,-2.4382,-2.4282,-2.4282,-2.4282,-2.4282,0,-2.419,-2.4211,-2.4234,-2.4246,-2.4257,-2.4283,-2.4275,-2.4288,-2.4278,-2.4275,-2.4306,-2.4309,-2.4324,-2.4333,-2.4323,-2.437,-2.4361,-2.4343,-2.4314,-2.4365,-2.4384,-2.4392,-2.4286,-2.4285,-2.4284,-2.4284,0,0,-2.4272,-2.4277,-2.4286,-2.4291,-2.4298,-2.4313,-2.4339,-2.4355,-2.4366,-2.4375,-2.4396,-2.4422,-2.4406,-2.4413,-2.4404,-2.4424,-2.4473,-2.4403,-2.4403,-2.4416,-2.4525,-2.4538,-2.4547,-2.4462,-2.4464,-2.4465,-2.4524,0,-2.4329,-2.4373,-2.4363,-2.4407,-2.4426,-2.4405,-2.4428,-2.4434,-2.4432,-2.4448,-2.4446,-2.4464,-2.4442,-2.4446,-2.4465,-2.4463,-2.4494,-2.4459,-2.4482,-2.4483,-2.448,-2.4557,-2.4571,-2.4626,-2.4531,-2.4533,-2.4533,0,-2.4402,-2.4414,-2.446,-2.4464,-2.4471,-2.4492,-2.4505,-2.4521,-2.4528,-2.4525,-2.4535,-2.4522,-2.4548,-2.4519,-2.4554,-2.453,-2.4539,-2.454,-2.4542,-2.4543,-2.4511,-2.4559,-2.4643,-2.4651,-2.4545,-2.4544,-2.4543,0,-2.4456,-2.4484,-2.4515,-2.4521,-2.4526,-2.4541,-2.4544,-2.4549,-2.4559,-2.4571,-2.4578,-2.4593,-2.4601,-2.4613,-2.4604,-2.4584,-2.4641,-2.4612,-2.4639,-2.464,-2.4651,-2.4651,-2.4737,-2.4659,-2.4658,-2.4658,-2.4658,0,-2.4521,-2.455,-2.454,-2.4559,-2.459,-2.4579,-2.461,-2.4611,-2.4616,-2.4635,-2.4618,-2.4636,-2.4624,-2.4641,-2.4635,-2.4665,-2.4669,-2.4668,-2.4666,-2.4669,-2.4669,-2.4674,-2.467,-2.466,-2.466,-2.466,-2.4659,0,-2.4587,-2.4581,-2.4614,-2.4616,-2.4618,-2.4641,-2.4643,-2.4661,-2.4658,-2.4682,-2.4687,-2.4683,-2.4702,-2.4695,-2.4716,-2.4712,-2.475,-2.4743,-2.4748,-2.4746,-2.4773,-2.4771,-2.4866,-2.4878,-2.4792,-2.4793,-2.4793,0,-2.4628,-2.465,-2.4655,-2.4667,-2.4671,-2.4689,-2.47,-2.469,-2.4701,-2.4711,-2.4728,-2.4746,-2.4759,-2.4791,-2.479,-2.4806,-2.4799,-2.4831,-2.4801,-2.4804,-2.4799,-2.4798,-2.48,-2.4837,-2.4838,-2.4839,-2.4839,0,-2.4703,-2.4699,-2.4714,-2.4729,-2.4742,-2.4753,-2.4763,-2.4773,-2.4764,-2.4778,-2.4797,-2.4808,-2.4829,-2.4847,-2.4862,-2.4865,-2.4851,-2.4849,-2.4856,-2.4859,-2.4861,-2.486,-2.4763,-2.4847,-2.4846,-2.4845,-2.4845,-2.4845,-2.4757,-2.4775,-2.4782,-2.48,-2.4806,-2.4816,-2.4833,-2.4832,-2.4848,-2.4865,-2.4858,-2.4881,-2.4888,-2.4906,-2.4911,-2.4929,-2.4916,-2.4927,-2.4929,-2.4932,-2.4935,-2.4859,-2.4931,-2.4931,-2.4931,-2.4931,-2.4931,0,-2.483,-2.4833,-2.485,-2.4864,-2.4878,-2.4864,-2.4875,-2.4887,-2.4908,-2.4916,-2.493,-2.4952,-2.497,-2.497,-2.4987,-2.5001,-2.4995,-2.5006,-2.5004,-2.5005,-2.4946,-2.4938,-2.501,-2.501,-2.501,-2.501,-2.501,-2.501,-2.487,-2.49,-2.4897,-2.493,-2.4933,-2.4955,-2.4962,-2.4971,-2.4977,-2.5004,-2.5018,-2.5018,-2.5024,-2.504,-2.5056,-2.5056,-2.5062,-2.5075,-2.5073,-2.5017,-2.5009,-2.5002,-2.4994,-2.5077,-2.5077,-2.513,-2.5131,-2.5131]},{"header":{"parameterUnit":"m.s-1","parameterCategory":1,"la1":30.2991,"la2":30.254,"lo1":-89.0895,"lo2":-89.0444,"dy":0.0017,"dx":0.0017,"nx":28,"ny":28,"refTime":"2024-05-22T03:00:00:Z","depth":0,"parameterNumber":3,"parameterNumberName":"V-component_of_WINDS"},"data":[0,0,0,0,0,0,0,0,0,0,0,0,0,0,0,0,0,0,0,0,0,0,0,0,0,0,0,0,0,0,0,0,0,0,0,0,0,0,0,0,0,0,0,0,0,0,0,0,0,0,0,0,0,0,0,0,0,0,3.6843,3.6843,0,3.6874,3.6874,3.6874,3.6863,3.6862,3.6861,3.686,3.689,3.6892,3.6893,0,0,0,0,0,0,0,0,0,0,0,0,0,3.6772,3.6773,3.6843,3.6843,3.6843,3.6874,3.6874,3.6874,3.6863,3.6862,3.6861,3.686,3.689,3.6892,3.6893,0,0,0,0,0,0,0,0,0,0,0,0,0,3.6802,3.6773,3.6843,3.6841,3.6841,3.6873,3.6874,3.6874,3.6863,3.6862,3.6861,3.686,3.6889,3.6891,3.6894,3.6928,0,0,3.69,3.6901,0,0,0,0,0,0,0,0,3.6801,3.6805,3.6841,3.6841,3.6842,3.6863,3.686,3.6892,3.6863,3.6855,3.686,3.6859,3.6882,3.6885,3.6893,3.6929,3.6931,3.69,3.6902,3.6903,3.6903,0,0,0,0,0,0,0,3.6799,3.6804,3.6855,3.6842,3.6842,3.6839,3.6842,3.6866,3.6874,3.6855,3.6855,3.6859,3.6882,3.6891,3.6893,3.6931,3.69,3.6902,3.6904,3.6904,3.6997,3.6998,0,0,0,0,0,0,3.6797,3.6802,3.6854,3.6856,3.6818,3.6841,3.6844,3.6857,3.6874,3.6875,3.6859,3.6858,3.6888,3.6891,3.6894,3.6935,3.6903,3.6905,3.6906,3.6995,3.6997,3.6998,0,0,0,0,0,0,3.6795,3.6801,3.6853,3.6829,3.6835,3.6843,3.6858,3.6858,3.6867,3.6877,3.6878,3.6867,3.6887,3.6891,3.692,3.6936,3.6906,3.6908,3.6994,3.6996,3.6997,3.7017,0,0,0,0,0,0,3.6793,3.6801,3.6815,3.6829,3.6836,3.6878,3.6859,3.686,3.6871,3.6869,3.6884,3.6885,3.6886,3.6916,3.6922,3.6938,3.6909,3.6993,3.6995,3.6997,3.7015,3.7019,3.7023,0,0,0,0,0,3.6791,3.6819,3.6815,3.6822,3.6854,3.6879,3.6883,3.6884,3.6873,3.6886,3.6892,3.6885,3.6934,3.6919,3.6925,3.6943,3.6992,3.6994,3.6997,3.7013,3.7018,3.7022,0,0,0,0,0,0,3.6805,3.682,3.6817,3.6851,3.6864,3.6877,3.6894,3.689,3.6906,3.6903,3.6903,3.6907,3.6936,3.6942,3.6926,3.6976,3.6961,3.6965,3.6971,3.6976,3.698,3.6977,3.6911,0,0,0,0,0,3.6812,3.6832,3.6844,3.6873,3.688,3.6886,3.6897,3.6896,3.691,3.6915,3.6923,3.6936,3.6954,3.6965,3.6983,3.7016,3.7018,3.7031,3.7035,3.7038,3.7041,3.7058,3.7063,3.7007,3.7007,3.7007,0,0,3.6827,3.6838,3.685,3.6876,3.6886,3.6906,3.689,3.6912,3.6926,3.6918,3.6945,3.6952,3.6966,3.6996,3.701,3.7003,3.7057,3.7041,3.7044,3.7045,3.7061,3.7066,3.7071,3.7008,3.7008,3.7008,0,0,3.6864,3.6875,3.6899,3.691,3.6925,3.6929,3.6935,3.6949,3.6953,3.6981,3.6974,3.6991,3.7023,3.7033,3.7042,3.7083,3.7076,3.7088,3.7108,3.7125,3.7129,3.7133,3.7146,3.7151,3.7091,3.7091,3.7091,0,3.688,3.691,3.6912,3.6934,3.6945,3.6939,3.6963,3.6973,3.6993,3.7001,3.6992,3.7031,3.704,3.7073,3.7083,3.7091,3.7097,3.7086,3.7129,3.7133,3.7136,3.7149,3.7154,3.7093,3.7092,3.7092,3.7092,0,3.6929,3.695,3.6967,3.6987,3.7001,3.7024,3.7028,3.7041,3.704,3.7044,3.7072,3.7083,3.7102,3.711,3.7109,3.7142,3.7137,3.7129,3.7112,3.7143,3.7155,3.716,3.7094,3.7094,3.7094,3.7093,0,0,3.6974,3.6995,3.7002,3.701,3.7027,3.7043,3.7066,3.7085,3.7095,3.711,3.7128,3.7155,3.7147,3.7157,3.7157,3.7172,3.7202,3.7162,3.7162,3.7168,3.7238,3.7243,3.7249,3.7199,3.72,3.7201,3.7237,0,3.7011,3.7051,3.7054,3.709,3.7108,3.7103,3.7123,3.7135,3.714,3.7156,3.7161,3.718,3.7169,3.7175,3.719,3.7196,3.7216,3.7193,3.7215,3.7215,3.721,3.7255,3.7261,3.7294,3.7241,3.7242,3.7243,0,3.706,3.7076,3.7114,3.7128,3.7135,3.7153,3.717,3.7186,3.72,3.7202,3.7214,3.7212,3.7234,3.7218,3.7248,3.7233,3.7242,3.7246,3.7247,3.7248,3.723,3.7256,3.7305,3.731,3.725,3.725,3.7249,0,3.7088,3.7119,3.7145,3.7153,3.717,3.7182,3.719,3.7203,3.7214,3.7229,3.7236,3.7253,3.7262,3.7275,3.7277,3.7266,3.7307,3.7292,3.7309,3.7309,3.7317,3.7316,3.7366,3.7325,3.7325,3.7325,3.7325,0,3.7128,3.7151,3.7158,3.7174,3.72,3.7202,3.7227,3.7233,3.7245,3.7261,3.7258,3.7274,3.7277,3.7293,3.7295,3.7319,3.7323,3.7325,3.7325,3.7324,3.7324,3.7329,3.7326,3.7326,3.7326,3.7325,3.7325,0,3.7163,3.7169,3.7197,3.7211,3.7215,3.7233,3.7245,3.726,3.7265,3.7286,3.7291,3.7298,3.7317,3.7321,3.7343,3.7344,3.7372,3.7371,3.7368,3.7367,3.7383,3.7381,3.7438,3.7445,3.74,3.7401,3.7401,0,3.7188,3.7205,3.7221,3.7232,3.7241,3.7259,3.727,3.7273,3.7285,3.7301,3.7314,3.7333,3.7348,3.7378,3.7384,3.7401,3.7399,3.7418,3.7401,3.74,3.7398,3.7396,3.7397,3.742,3.7421,3.7421,3.7422,0,3.723,3.7232,3.7249,3.7267,3.7281,3.7295,3.7308,3.7317,3.7322,3.7335,3.7354,3.7366,3.7389,3.7407,3.7423,3.743,3.7426,3.7427,3.7431,3.743,3.7427,3.7428,3.7375,3.7425,3.7425,3.7425,3.7424,3.7424,3.726,3.7275,3.7289,3.7307,3.7318,3.733,3.7345,3.7352,3.7368,3.7387,3.7388,3.7408,3.7421,3.7443,3.7451,3.7467,3.7461,3.7468,3.7469,3.747,3.7471,3.7426,3.747,3.747,3.747,3.747,3.747,0,3.7302,3.731,3.7327,3.7346,3.736,3.7356,3.7371,3.7383,3.7401,3.7414,3.7428,3.745,3.7467,3.7476,3.7493,3.7504,3.7502,3.7508,3.7506,3.7508,3.7476,3.747,3.7509,3.7509,3.7509,3.7509,3.7509,3.7509,3.7325,3.735,3.7353,3.7383,3.7391,3.7412,3.742,3.7431,3.7441,3.7465,3.748,3.7486,3.7496,3.7514,3.7529,3.7531,3.7537,3.7544,3.7544,3.7514,3.751,3.7506,3.75,3.7545,3.7545,3.7575,3.7575,3.7575]}]]